Home   Weather   Karaganda   Past weeks

Flag for Kazakhstan Past Weather in Karaganda, Kazakhstan — Yesterday and Last 2 Weeks

Now
45 °F

Clear.


Feels Like: 45 °F
Forecast: 47 / 72 °F
Wind: 1 mph from North

Location: Karaganda

Current Time: Aug 17, 2017 at 5:50:12 am

Latest Report: Aug 17, 2017 at 5:00 am


Visibility: 10 mi

Pressure: 30.12 "Hg (28.15 "Hg at 555m altitude)

Humidity: 93%

Dew Point: 43 °F

Location of KaragandaLocation

Past Weather in Karaganda — Graph

°F

Karaganda Temperature Yesterday

Maximum temperature yesterday: 70 °F (at 3:30 pm)
Minimum temperature yesterday: 39 °F (at 6:00 am)
Average temperature yesterday: 55 °F

High & Low Weather Summary for the Past Weeks

 TemperatureHumidityPressure
High95 °F (Aug 6, 3:30 pm)100% (Aug 11, 4:00 am)30.12 "Hg (Aug 11, 4:00 am)
Low36 °F (Aug 13, 6:00 am)13% (Aug 2, 4:30 pm)29.53 "Hg (Aug 11, 8:30 am)
Average64 °F57%29.88 "Hg
* Reported Aug 2 4:00 am — Aug 17 4:30 am, Karaganda. Weather by CustomWeather, © 2017

Note: Actual official high and low records may vary slightly from our data, if they occured in-between our weather recording intervals... More about our weather records

Advertising

Karaganda Weather History for the Previous 24 Hours

Scroll right to see more
 ConditionsComfort  
Time TempWeatherWind HumidityBarometerVisibility
4:30 am
Thu, Aug 17
43 °FClear.1 mph93%30.12 "Hg10 mi
4:00 am45 °FClear.1 mph87%30.12 "Hg10 mi
3:30 am45 °FClear.1 mph87%30.09 "Hg10 mi
3:00 am41 °FClear.3 mph93%30.09 "Hg10 mi
2:30 am41 °FClear.1 mph93%30.09 "Hg10 mi
2:00 am43 °FClear.3 mph93%30.12 "Hg10 mi
1:30 am43 °FClear.1 mph87%30.12 "Hg10 mi
1:00 am43 °FClear.1 mph93%30.12 "Hg10 mi
12:30 am45 °FClear.3 mph87%30.12 "Hg10 mi
12:00 am43 °FClear.3 mph87%30.12 "Hg10 mi
11:30 pm
Wed, Aug 16
43 °FClear.3 mph87%30.12 "Hg10 mi
11:00 pm45 °FClear.3 mph81%30.12 "Hg10 mi
10:30 pm46 °FClear.3 mph82%30.12 "Hg10 mi
10:00 pm46 °FClear.8 mph82%30.12 "Hg10 mi
9:30 pm48 °FClear.6 mph76%30.12 "Hg10 mi
9:00 pm52 °FSunny.8 mph67%30.12 "Hg10 mi
8:30 pm57 °FSunny.10 mph55%30.12 "Hg10 mi
8:00 pm61 °FSunny.10 mph48%30.09 "Hg10 mi
7:30 pm64 °FSunny.15 mph40%30.09 "Hg10 mi
7:00 pm66 °FSunny.17 mph37%30.07 "Hg10 mi
6:30 pm68 °FSunny.20 mph35%30.07 "Hg10 mi
6:00 pm68 °FSunny.15 mph33%30.07 "Hg10 mi
5:30 pm68 °FSunny.15 mph35%30.07 "Hg10 mi
5:00 pm70 °FSunny.15 mph33%30.07 "Hg10 mi
4:30 pm70 °FSunny.15 mph33%30.07 "Hg10 mi
4:00 pm70 °FSunny.17 mph33%30.07 "Hg10 mi
3:30 pm70 °FSunny.15 mph35%30.07 "Hg10 mi
3:00 pm68 °FPassing clouds.17 mph38%30.07 "HgN/A
2:30 pm66 °FPassing clouds.15 mph40%30.07 "HgN/A
2:00 pm66 °FSunny.15 mph40%30.07 "Hg10 mi
1:30 pm66 °FPassing clouds.17 mph40%30.07 "HgN/A
1:00 pm66 °FPassing clouds.20 mph37%30.07 "HgN/A
12:30 pm64 °FPassing clouds.15 mph43%30.07 "HgN/A
12:00 pm64 °FPassing clouds.15 mph46%30.09 "HgN/A
11:30 am64 °FPassing clouds.15 mph43%30.09 "HgN/A
11:00 am63 °FPassing clouds.13 mph45%30.09 "HgN/A
10:30 am61 °FScattered clouds.13 mph52%30.09 "HgN/A
10:00 am61 °FScattered clouds.17 mph48%30.09 "HgN/A
9:30 am59 °FSunny.10 mph55%30.09 "Hg10 mi
9:00 am57 °FSunny.10 mph67%30.09 "Hg10 mi
8:30 am54 °FSunny.6 mph82%30.09 "Hg10 mi
8:00 am50 °FSunny.3 mph88%30.09 "Hg10 mi
7:30 am46 °FSunny.3 mph93%30.09 "Hg10 mi
7:00 am43 °FSunny.3 mph100%30.09 "Hg10 mi
6:30 am41 °FClear.6 mph93%30.07 "Hg10 mi
6:00 am39 °FClear.6 mph100%30.07 "Hg10 mi
5:30 am41 °FClear.3 mph93%30.07 "Hg10 mi
5:00 am43 °FClear.3 mph93%30.07 "Hg10 mi
Weather by CustomWeather, © 2017

See weather overviewHow to use our weather pages